Weather History for Farmington, MO

Change the Weather History Date:

Wednesday, February 12, 2014

  Actual Average Record
Temperature  
Mean Temperature 19 °F -  
Max Temperature 37 °F 44 °F 60 °F (2005)
Min Temperature 1 °F 28 °F 1 °F (2014)
Degree Days  
Heating Degree Days 46    
Moisture  
Dew Point 6 °F    
Average Humidity 64    
Maximum Humidity 100    
Minimum Humidity 24    
Precipitation  
Precipitation 0.00 in - - ()
Sea Level Pressure  
Sea Level Pressure 30.13 in    
Wind  
Wind Speed 1 mph (NE)    
Max Wind Speed 7 mph    
Max Gust Speed -    
Visibility 10 miles    
Events      
Averages and records for this station are not official NWS values.
T = Trace of Precipitation, MM = Missing Value Source: NWS Daily Summary

Daily Weather History Graph

Daily Weather History Graph

Search for Another Location

Airport:

Trip Planner

Search our weather history database for the weather conditions in past years. The results will help you decide how hot, cold, wet, or windy it might be!

Date:

Astronomy

Feb. 12, 2014 Rise Set
Actual Time 6:54 AM CST 5:37 PM CST
Civil Twilight 6:27 AM CST 6:04 PM CST
Nautical Twilight 5:56 AM CST 6:35 PM CST
Astronomical Twilight 5:26 AM CST 7:06 PM CST
Moon 3:52 PM CST (2/12) 5:10 AM CST (2/12)
Length of Visible Light 11h 36m
Length of Day
10h 42m
Waxing Gibbous, 95% of the Moon is Illuminated
Feb 12
Waxing Gibbous
Feb 14
Full
Feb 22
Last Quarter
Mar 1
New
Mar 8
First Quarter

Hourly Weather History & Observations

Time (CST) Temp. Windchill Dew Point Humidity Pressure Visibility Wind Dir Wind Speed Gust Speed Precip Events Conditions
12:15 AM 5.0 °F - -0.4 °F 78% 30.30 in 10.0 mi Calm Calm - N/A   Clear
12:35 AM 6.8 °F - 1.4 °F 79% 30.30 in 10.0 mi Calm Calm - N/A   Clear
12:55 AM 5.0 °F - 1.4 °F 85% 30.29 in 10.0 mi Calm Calm - N/A   Clear
1:15 AM 3.2 °F - -0.4 °F 85% 30.28 in 10.0 mi Calm Calm - N/A   Clear
1:35 AM 5.0 °F - 1.4 °F 85% 30.27 in 10.0 mi Calm Calm - N/A   Clear
1:55 AM 3.2 °F - 1.4 °F 92% 30.25 in 10.0 mi Calm Calm - N/A   Clear
2:15 AM 1.4 °F - -5.8 °F 72% 30.25 in 10.0 mi Calm Calm - N/A   Clear
2:35 AM 3.2 °F - -0.4 °F 85% 30.25 in 10.0 mi Calm Calm - N/A   Clear
2:55 AM 1.4 °F - -0.4 °F 92% 30.24 in 10.0 mi Calm Calm - N/A   Clear
3:15 AM 1.4 °F - 1.4 °F 100% 30.23 in 10.0 mi Calm Calm - N/A   Clear
3:35 AM 1.4 °F - -2.2 °F 85% 30.22 in 10.0 mi Calm Calm - N/A   Clear
3:55 AM 1.4 °F -6.2 °F -2.2 °F 85% 30.23 in 10.0 mi NW 3.5 mph - N/A   Clear
4:15 AM 3.2 °F - 1.4 °F 92% 30.22 in 10.0 mi Calm Calm - N/A   Clear
4:35 AM 3.2 °F -4.2 °F -2.2 °F 78% 30.20 in 10.0 mi South 3.5 mph - N/A   Clear
4:55 AM 1.4 °F - -5.8 °F 72% 30.19 in 10.0 mi Calm Calm - N/A   Clear
5:15 AM 1.4 °F - -0.4 °F 92% 30.20 in 10.0 mi Calm Calm - N/A   Clear
5:35 AM 3.2 °F - 1.4 °F 92% 30.21 in 10.0 mi Calm Calm - N/A   Clear
5:55 AM 1.4 °F - -5.8 °F 72% 30.21 in 10.0 mi Calm Calm - N/A   Clear
6:15 AM 3.2 °F - 3.2 °F 100% 30.21 in 10.0 mi Calm Calm - N/A   Clear
6:35 AM 1.4 °F - -4.0 °F 78% 30.20 in 10.0 mi Calm Calm - N/A   Clear
6:55 AM 1.4 °F - -2.2 °F 85% 30.21 in 9.0 mi Calm Calm - N/A   Clear
7:15 AM 1.4 °F - -0.4 °F 92% 30.22 in 10.0 mi Calm Calm - N/A   Clear
7:35 AM 3.2 °F - 1.4 °F 92% 30.20 in 7.0 mi Calm Calm - N/A   Clear
7:55 AM 3.2 °F - -2.2 °F 78% 30.19 in 8.0 mi Calm Calm - N/A   Clear
8:15 AM 5.0 °F - 1.4 °F 85% 30.20 in 7.0 mi Calm Calm - N/A   Clear
8:35 AM 8.6 °F - 3.2 °F 79% 30.20 in 10.0 mi Calm Calm - N/A   Clear
8:55 AM 10.4 °F - 3.2 °F 73% 30.20 in 10.0 mi Calm Calm - N/A   Clear
9:15 AM 14.0 °F - 3.2 °F 62% 30.20 in 10.0 mi Calm Calm - N/A   Clear
9:35 AM 14.0 °F - 5.0 °F 67% 30.20 in 10.0 mi Calm Calm - N/A   Clear
9:55 AM 17.6 °F - 8.6 °F 68% 30.20 in 10.0 mi Calm Calm - N/A   Clear
10:15 AM 21.2 °F - 8.6 °F 58% 30.20 in 10.0 mi Calm Calm - N/A   Clear
10:35 AM 19.4 °F - 10.4 °F 68% 30.19 in 10.0 mi Calm Calm - N/A   Clear
10:55 AM 21.2 °F - 10.4 °F 63% 30.18 in 10.0 mi Calm Calm - N/A   Clear
11:15 AM 24.8 °F - 10.4 °F 54% 30.17 in 10.0 mi Calm Calm - N/A   Clear
11:35 AM 26.6 °F - 10.4 °F 51% 30.15 in 10.0 mi Calm Calm - N/A   Clear
11:55 AM 28.4 °F - 8.6 °F 43% 30.14 in 10.0 mi Calm Calm - N/A   Clear
12:15 PM 28.4 °F - 10.4 °F 47% 30.13 in 10.0 mi Calm Calm - N/A   Clear
12:35 PM 30.2 °F - 10.4 °F 44% 30.11 in 10.0 mi Calm Calm - N/A   Clear
12:55 PM 30.2 °F - 10.4 °F 44% 30.10 in 10.0 mi Calm Calm - N/A   Clear
1:15 PM 33.8 °F - 8.6 °F 35% 30.08 in 10.0 mi Calm Calm - N/A   Clear
1:35 PM 35.6 °F - 8.6 °F 33% 30.07 in 10.0 mi Calm Calm - N/A   Clear
1:55 PM 35.6 °F 31.7 °F 6.8 °F 30% 30.06 in 10.0 mi ENE 4.6 mph - N/A   Clear
2:15 PM 37.4 °F 34.9 °F 3.2 °F 24% 30.05 in 10.0 mi East 3.5 mph - N/A   Clear
2:35 PM 37.4 °F 34.9 °F 3.2 °F 24% 30.04 in 10.0 mi NNE 3.5 mph - N/A   Clear
2:55 PM 37.4 °F - 5.0 °F 26% 30.04 in 10.0 mi Calm Calm - N/A   Clear
3:15 PM 37.4 °F 32.8 °F 6.8 °F 28% 30.03 in 10.0 mi NNW 5.8 mph - N/A   Clear
3:35 PM 37.4 °F 33.8 °F 8.6 °F 30% 30.03 in 10.0 mi NNE 4.6 mph - N/A   Clear
3:55 PM 37.4 °F 32.8 °F 8.6 °F 30% 30.03 in 10.0 mi NNE 5.8 mph - N/A   Clear
4:15 PM 37.4 °F 33.8 °F 8.6 °F 30% 30.03 in 10.0 mi NNE 4.6 mph - N/A   Clear
4:35 PM 35.6 °F 29.9 °F 12.2 °F 38% 30.02 in 10.0 mi ENE 6.9 mph - N/A   Clear
4:55 PM 35.6 °F 30.7 °F 14.0 °F 41% 30.02 in 10.0 mi NE 5.8 mph - N/A   Clear
5:15 PM 33.8 °F 28.6 °F 14.0 °F 44% 30.02 in 10.0 mi NE 5.8 mph - N/A   Clear
5:35 PM 33.8 °F 27.7 °F 14.0 °F 44% 30.03 in 10.0 mi NE 6.9 mph - N/A   Clear
5:55 PM 30.2 °F 23.4 °F 14.0 °F 51% 30.03 in 10.0 mi NE 6.9 mph - N/A   Clear
6:15 PM 28.4 °F 21.2 °F 12.2 °F 51% 30.04 in 10.0 mi NE 6.9 mph - N/A   Clear
6:35 PM 28.4 °F 21.2 °F 12.2 °F 51% 30.04 in 10.0 mi ENE 6.9 mph - N/A   Clear
6:55 PM 26.6 °F 20.0 °F 12.2 °F 55% 30.04 in 10.0 mi NE 5.8 mph - N/A   Clear
7:15 PM 26.6 °F 20.0 °F 12.2 °F 55% 30.04 in 10.0 mi NE 5.8 mph - N/A   Clear
7:35 PM 26.6 °F 22.6 °F 12.2 °F 55% 30.05 in 10.0 mi NE 3.5 mph - N/A   Clear
7:55 PM 26.6 °F - 10.4 °F 51% 30.05 in 10.0 mi Calm Calm - N/A   Clear
8:15 PM 23.0 °F - 8.6 °F 54% 30.04 in 10.0 mi Calm Calm - N/A   Clear
8:35 PM 24.8 °F - 12.2 °F 59% 30.04 in 10.0 mi Calm Calm - N/A   Clear
8:55 PM 23.0 °F - 12.2 °F 63% 30.03 in 10.0 mi Calm Calm - N/A   Clear
9:15 PM 23.0 °F - 12.2 °F 63% 30.02 in 10.0 mi Calm Calm - N/A   Clear
9:35 PM 19.4 °F - 12.2 °F 74% 30.01 in 10.0 mi Calm Calm - N/A   Clear
9:55 PM 19.4 °F - 12.2 °F 74% 30.01 in 10.0 mi Calm Calm - N/A   Clear
10:15 PM 19.4 °F - 12.2 °F 74% 30.00 in 10.0 mi Calm Calm - N/A   Clear
10:35 PM 19.4 °F - 12.2 °F 74% 30.00 in 10.0 mi Calm Calm - N/A   Clear
10:55 PM 17.6 °F - 12.2 °F 79% 30.00 in 10.0 mi Calm Calm - N/A   Clear
11:15 PM 17.6 °F - 12.2 °F 79% 30.00 in 10.0 mi Calm Calm - N/A   Clear
11:35 PM 17.6 °F - 14.0 °F 86% 29.99 in 10.0 mi Calm Calm - N/A   Clear
11:55 PM 15.8 °F - 10.4 °F 79% 29.99 in 10.0 mi Calm Calm - N/A   Clear